When you browse on this site, cookies collect data to enhance your experience and personalize the content and advertising you see.
Visit our Privacy Policy to learn more. By continuing to use the site, you agree to this use of cookies and data.
  • Em Portugal
  • Lista de países
  • Para 7 dias
  • Temperatura da água
  • Mapas de satélite
  • Mapa do tempo
  • Widgets de tempo
  • user-avatar
    Iniciar Sessão

    Previsão horária em La Condamine

    Hoje, 19 Fevereiro, Terça-feira

    Tempo Temperatura Precipitação Vento Pressão Humidade
    00:00 +8°C° 0 mm 1 m/s 751 mmHg 59%
    01:00 +8°C° 0 mm 1 m/s 751 mmHg 56%
    02:00 +8°C° 0 mm 1 m/s 751 mmHg 52%
    03:00 +8°C° 0 mm 1 m/s 750 mmHg 49%
    04:00 +8°C° 0 mm 1 m/s 750 mmHg 47%
    05:00 +8°C° 0 mm 1 m/s 750 mmHg 46%
    06:00 +8°C° 0 mm 1 m/s 750 mmHg 44%
    07:00 +9°C° 0 mm 1 m/s 750 mmHg 44%
    08:00 +11°C° 0 mm 1 m/s 750 mmHg 44%
    09:00 +12°C° 0 mm 1 m/s 750 mmHg 43%
    10:00 +13°C° 0 mm 1 m/s 750 mmHg 45%
    11:00 +14°C° 0 mm 2 m/s 750 mmHg 47%
    12:00 +14°C° 0 mm 2 m/s 750 mmHg 48%
    13:00 +14°C° 0 mm 2 m/s 750 mmHg 51%
    14:00 +14°C° 0 mm 2 m/s 750 mmHg 54%
    15:00 +14°C° 0 mm 2 m/s 749 mmHg 57%
    16:00 +12°C° 0 mm 1 m/s 750 mmHg 63%
    17:00 +11°C° 0 mm 1 m/s 750 mmHg 69%
    18:00 +9°C° 0 mm 0 m/s 750 mmHg 76%
    19:00 +9°C° 0 mm 0 m/s 750 mmHg 73%
    20:00 +8°C° 0 mm 0 m/s 750 mmHg 71%
    21:00 +9°C° 0 mm 1 m/s 751 mmHg 68%
    22:00 +9°C° 0 mm 1 m/s 751 mmHg 66%
    23:00 +9°C° 0 mm 1 m/s 751 mmHg 63%

    Amanhã, 20 Fevereiro, Quarta-feira

    Tempo Temperatura Precipitação Vento Pressão Humidade
    00:00 +9°C° 0 mm 1 m/s 751 mmHg 61%
    01:00 +9°C° 0 mm 1 m/s 751 mmHg 59%
    02:00 +9°C° 0 mm 1 m/s 751 mmHg 57%
    03:00 +8°C° 0 mm 1 m/s 751 mmHg 55%
    04:00 +8°C° 0 mm 1 m/s 751 mmHg 53%
    05:00 +8°C° 0 mm 1 m/s 751 mmHg 51%
    06:00 +8°C° 0 mm 1 m/s 751 mmHg 50%
    07:00 +10°C° 0 mm 1 m/s 751 mmHg 48%
    08:00 +11°C° 0 mm 1 m/s 751 mmHg 46%
    09:00 +13°C° 0 mm 1 m/s 752 mmHg 45%
    10:00 +13°C° 0 mm 1 m/s 752 mmHg 47%
    11:00 +14°C° 0 mm 1 m/s 752 mmHg 49%
    12:00 +15°C° 0 mm 2 m/s 752 mmHg 50%
    13:00 +15°C° 0 mm 2 m/s 752 mmHg 53%
    14:00 +14°C° 0 mm 2 m/s 752 mmHg 56%
    15:00 +14°C° 0 mm 2 m/s 752 mmHg 59%
    16:00 +13°C° 0 mm 1 m/s 752 mmHg 65%
    17:00 +12°C° 0 mm 1 m/s 752 mmHg 71%
    18:00 +10°C° 0 mm 1 m/s 753 mmHg 77%
    19:00 +10°C° 0 mm 1 m/s 753 mmHg 74%
    20:00 +10°C° 0 mm 1 m/s 753 mmHg 70%
    21:00 +10°C° 0 mm 1 m/s 753 mmHg 67%
    22:00 +10°C° 0 mm 1 m/s 754 mmHg 63%
    23:00 +10°C° 0 mm 1 m/s 754 mmHg 60%

    Depois de amanhã, 21 Fevereiro, Quinta-feira

    Tempo Temperatura Precipitação Vento Pressão Humidade
    00:00 +10°C° 0 mm 1 m/s 754 mmHg 56%
    01:00 +9°C° 0 mm 1 m/s 754 mmHg 54%
    02:00 +9°C° 0 mm 1 m/s 754 mmHg 51%
    03:00 +9°C° 0 mm 1 m/s 754 mmHg 48%
    04:00 +9°C° 0 mm 1 m/s 754 mmHg 46%
    05:00 +9°C° 0 mm 1 m/s 754 mmHg 44%
    06:00 +9°C° 0 mm 1 m/s 754 mmHg 42%
    07:00 +11°C° 0 mm 1 m/s 755 mmHg 41%
    08:00 +12°C° 0 mm 1 m/s 755 mmHg 40%
    09:00 +14°C° 0 mm 1 m/s 755 mmHg 38%
    10:00 +15°C° 0 mm 1 m/s 755 mmHg 40%
    11:00 +15°C° 0 mm 2 m/s 755 mmHg 43%
    12:00 +16°C° 0 mm 2 m/s 755 mmHg 45%
    13:00 +16°C° 0 mm 3 m/s 755 mmHg 48%
    14:00 +16°C° 0 mm 3 m/s 755 mmHg 51%
    15:00 +16°C° 0 mm 3 m/s 755 mmHg 54%
    16:00 +13°C° 0 mm 3 m/s 755 mmHg 59%
    17:00 +13°C° 0 mm 2 m/s 755 mmHg 64%
    18:00 +12°C° 0 mm 2 m/s 755 mmHg 70%
    19:00 +12°C° 0 mm 2 m/s 755 mmHg 66%
    20:00 +12°C° 0 mm 2 m/s 755 mmHg 61%
    21:00 +12°C° 0 mm 1 m/s 756 mmHg 57%
    22:00 +12°C° 0 mm 1 m/s 755 mmHg 54%
    23:00 +12°C° 0 mm 1 m/s 755 mmHg 51%

    22 Fevereiro, Sexta-feira

    Tempo Temperatura Precipitação Vento Pressão Humidade
    00:00 +12°C° 0 mm 1 m/s 755 mmHg 47%
    01:00 +12°C° 0 mm 1 m/s 755 mmHg 44%
    02:00 +11°C° 0 mm 1 m/s 755 mmHg 42%
    03:00 +11°C° 0 mm 1 m/s 754 mmHg 39%
    04:00 +11°C° 0 mm 1 m/s 754 mmHg 37%
    05:00 +11°C° 0 mm 1 m/s 754 mmHg 35%
    06:00 +11°C° 0 mm 1 m/s 754 mmHg 33%
    07:00 +13°C° 0 mm 1 m/s 754 mmHg 33%
    08:00 +15°C° 0 mm 1 m/s 754 mmHg 33%
    09:00 +18°C° 0 mm 1 m/s 754 mmHg 33%
    10:00 +18°C° 0 mm 2 m/s 754 mmHg 34%
    11:00 +19°C° 0 mm 2 m/s 754 mmHg 36%
    12:00 +20°C° 0 mm 2 m/s 754 mmHg 37%
    13:00 +19°C° 0 mm 2 m/s 753 mmHg 40%
    14:00 +19°C° 0 mm 2 m/s 753 mmHg 44%
    15:00 +18°C° 0 mm 2 m/s 753 mmHg 47%
    16:00 +17°C° 0 mm 2 m/s 753 mmHg 51%
    17:00 +16°C° 0 mm 1 m/s 753 mmHg 55%
    18:00 +14°C° 0 mm 1 m/s 753 mmHg 59%
    19:00 +14°C° 0 mm 1 m/s 753 mmHg 56%
    20:00 +14°C° 0 mm 1 m/s 753 mmHg 53%
    21:00 +14°C° 0 mm 1 m/s 754 mmHg 50%
    22:00 +13°C° 0 mm 1 m/s 754 mmHg 48%
    23:00 +13°C° 0 mm 2 m/s 754 mmHg 46%

    23 Fevereiro, Sábado

    Tempo Temperatura Precipitação Vento Pressão Humidade
    00:00 +13°C° 0 mm 2 m/s 755 mmHg 44%
    01:00 +12°C° 0 mm 2 m/s 755 mmHg 43%
    02:00 +12°C° 0 mm 2 m/s 755 mmHg 42%
    03:00 +12°C° 0 mm 2 m/s 755 mmHg 40%
    04:00 +12°C° 0 mm 2 m/s 755 mmHg 41%
    05:00 +12°C° 0 mm 2 m/s 755 mmHg 41%
    06:00 +10°C° 0 mm 2 m/s 756 mmHg 42%
    07:00 +13°C° 0 mm 2 m/s 756 mmHg 43%
    08:00 +14°C° 0 mm 2 m/s 756 mmHg 44%
    09:00 +16°C° 0 mm 2 m/s 756 mmHg 45%
    10:00 +16°C° 0 mm 2 m/s 756 mmHg 47%
    11:00 +17°C° 0 mm 3 m/s 756 mmHg 49%
    12:00 +18°C° 0 mm 3 m/s 756 mmHg 51%
    13:00 +17°C° 0 mm 3 m/s 756 mmHg 53%
    14:00 +17°C° 0 mm 3 m/s 756 mmHg 56%
    15:00 +17°C° 0 mm 2 m/s 755 mmHg 59%
    16:00 +16°C° 0 mm 2 m/s 755 mmHg 64%
    17:00 +14°C° 0 mm 2 m/s 755 mmHg 70%
    18:00 +13°C° 0 mm 1 m/s 755 mmHg 76%
    19:00 +13°C° 0 mm 1 m/s 755 mmHg 75%
    20:00 +12°C° 0 mm 1 m/s 755 mmHg 75%
    21:00 +11°C° 0 mm 0 m/s 756 mmHg 75%
    22:00 +11°C° 0 mm 0 m/s 756 mmHg 75%
    23:00 +11°C° 0 mm 0 m/s 755 mmHg 74%

    24 Fevereiro, Domingo

    Tempo Temperatura Precipitação Vento Pressão Humidade
    00:00 +10°C° 0 mm 0 m/s 755 mmHg 74%
    01:00 +10°C° 0 mm 0 m/s 755 mmHg 74%
    02:00 +10°C° 0 mm 0 m/s 755 mmHg 73%
    03:00 +10°C° 0 mm 0 m/s 755 mmHg 72%
    04:00 +11°C° 0 mm 1 m/s 754 mmHg 72%
    05:00 +11°C° 0 mm 1 m/s 754 mmHg 72%
    06:00 +10°C° 0 mm 1 m/s 754 mmHg 72%
    07:00 +12°C° 0 mm 1 m/s 754 mmHg 69%
    08:00 +13°C° 0 mm 2 m/s 755 mmHg 65%
    09:00 +14°C° 0 mm 2 m/s 755 mmHg 61%
    10:00 +14°C° 0 mm 3 m/s 755 mmHg 61%
    11:00 +16°C° 0 mm 3 m/s 755 mmHg 61%
    12:00 +15°C° 0 mm 4 m/s 755 mmHg 60%
    13:00 +15°C° 0 mm 4 m/s 755 mmHg 62%
    14:00 +16°C° 0 mm 3 m/s 755 mmHg 65%
    15:00 +14°C° 0 mm 3 m/s 755 mmHg 67%
    16:00 +13°C° 0 mm 3 m/s 755 mmHg 72%
    17:00 +13°C° 0 mm 2 m/s 756 mmHg 77%
    18:00 +12°C° 0 mm 2 m/s 756 mmHg 83%
    19:00 +12°C° 0 mm 2 m/s 756 mmHg 81%
    20:00 +10°C° 0 mm 2 m/s 757 mmHg 80%
    21:00 +10°C° 0 mm 2 m/s 757 mmHg 78%
    22:00 +10°C° 0 mm 2 m/s 757 mmHg 76%
    23:00 +10°C° 0 mm 2 m/s 758 mmHg 73%
    Mostrar mais